This demonstration page uses our WeatherBlox Daily Observations layout. Learn more.

Left ArrowRight Arrow

39.01783, -85.05884

Hourly Observations for February 28, 2017

Temp ( °F °C ) Dew Point ( °F °C ) Humidity (%) Winds ( mph kmh ) Pressure ( in mb ) Visibility ( mi km ) Precip ( " mm )
12:52 am 00:52 Cloudy 45 7.2 40 4.4 83 83 SSE 10 17 30.15 1021 10 16 0.00 0.00
1:52 am 01:52 Cloudy 44 6.7 39 3.9 83 83 SSE 9 15 30.14 1021 10 16 0.00 0.00
2:52 am 02:52 Mostly Cloudy 44 6.7 39 3.9 83 83 S 9 15 30.12 1020 10 16 0.00 0.00
3:52 am 03:52 Cloudy 43 6.1 40 4.4 89 89 SSE 8 13 30.09 1019 10 16 0.00 0.00
4:52 am 04:52 Cloudy 44 6.7 41 5 89 89 S 9 15 30.10 1019 10 16 0.00 0.00
5:52 am 05:52 Cloudy with Rain 46 7.8 43 6.1 89 89 S 9 15 30.09 1019 7 11 0.05 1.27
6:52 am 06:52 Cloudy with Light Rain 46 7.8 45 7.2 96 96 S 8 13 30.09 1019 8 13 0.08 2.03
7:52 am 07:52 Cloudy with Light Rain 47 8.3 46 7.8 97 97 ESE 8 13 30.06 1018 5 8 0.09 2.29
8:09 am 08:09 Cloudy with Light Rain 47 8.3 46 7.8 97 97 ESE 6 9 30.09 1019 2 3 0.01 0.25
8:16 am 08:16 Cloudy with Heavy Rain 46 8 46 8 100 100 E 5 7 30.12 1020 2 3 0.00 0.00
8:23 am 08:23 Cloudy with Nearby Thunderstorms 46 7.8 46 7.8 100 100 E 8 13 30.09 1019 2 3 0.14 3.56
8:28 am 08:28 Cloudy with Thunderstorms 46 8 45 7 93 93 ESE 6 9 30.09 1019 2 3 0.00 0.00
8:36 am 08:36 Cloudy with Strong Thunderstorms 46 8 46 8 100 100 Calm 30.15 1021 2 2 0.00 0.00
8:47 am 08:47 Cloudy with Thunderstorms 46 8 45 7 93 93 SSE 7 11 30.12 1020 3 4 0.30 7.62
8:52 am 08:52 Cloudy with Thunderstorms 46 7.8 45 7.2 96 96 SSE 15 24 30.08 1019 3 4 0.32 8.13
9:12 am 09:12 Cloudy with Strong Thunderstorms 46 7.8 46 7.8 100 100 S 16 26 30.12 1020 2 2 0.08 2.03
9:29 am 09:29 Cloudy with Nearby Thunderstorms 48 8.9 48 8.9 100 100 SSE 15 24 30.06 1018 2 2 0.21 5.33
9:35 am 09:35 Cloudy with Light Rain 49 9.4 48 8.9 97 97 SSE 14 22 30.03 1017 4 6 0.24 6.10
9:52 am 09:52 Cloudy with Light Rain 50 10 49 9.4 96 96 SSE 12 19 30.04 1017 6 10 0.26 6.60
10:07 am 10:07 Cloudy with Light Rain 50 10 49 9.4 96 96 SSE 10 17 30.03 1017 6 10 0.01 0.25
10:33 am 10:33 Cloudy with Thunderstorms 50 10 49 9.4 96 96 SSE 7 11 30.03 1017 8 13 0.01 0.25
10:52 am 10:52 Cloudy with Thunderstorms 50 10 48 8.9 93 93 SSE 15 24 30.06 1018 3 4 0.02 0.51
11:08 am 11:08 Cloudy with Thunderstorms 49 9.4 48 8.9 97 97 SSE 14 22 30.09 1019 2 3 0.08 2.03
11:24 am 11:24 Cloudy with Rain 48 9 48 9 100 100 SSE 7 11 30.06 1018 2 3 0.00 0.00
11:33 am 11:33 Cloudy with Light Rain 49 9.4 49 9.4 100 100 SSE 13 20 30.03 1017 5 8 0.28 7.11
11:52 am 11:52 Cloudy with Light Rain 50 10 49 9.4 96 96 SSE 13 20 30.02 1017 7 11 0.31 7.87
12:28 pm 12:28 Cloudy 52 11.1 51 10.6 97 97 SSE 14 22 30.00 1016 10 16 0.01 0.25
12:52 pm 12:52 Cloudy 52 11.1 51 10.6 97 97 SSE 13 20 29.98 1015 10 16 0.01 0.25
1:40 pm 13:40 Cloudy with Light Rain 54 12 52 11 94 94 S 10 17 29.97 1015 4 6 0.00 0.00
1:52 pm 13:52 Cloudy with Light Rain 53 11.7 53 11.7 100 100 S 14 22 29.98 1015 5 8 0.02 0.51
1:59 pm 13:59 Cloudy with Heavy Rain 53 11.7 52 11.1 96 96 S 15 24 29.97 1015 3 4 0.03 0.76
2:01 pm 14:01 Cloudy with Heavy Rain 53 11.7 52 11.1 96 96 S 16 26 29.97 1015 3 4 0.05 1.27
2:42 pm 14:42 Cloudy with Light Rain 56 13.3 55 12.8 97 97 SSW 3 6 29.94 1014 3 4 0.13 3.30
2:52 pm 14:52 Cloudy with Mist and Fog 56 13.3 55 12.8 97 97 SSE 6 9 29.94 1014 2 3 0.13 3.30
2:54 pm 14:54 Cloudy with Mist and Fog 55 13 55 13 100 100 SSE 7 11 29.94 1014 2 3 0.00 0.00
3:04 pm 15:04 Cloudy with Mist and Fog 55 13 55 13 100 100 SSE 9 15 29.94 1014 2 3 0.00 0.00
3:34 pm 15:34 Cloudy with Nearby Thunderstorms 54 12 54 12 100 100 SE 13 20 29.91 1013 3 4 0.00 0.00
3:52 pm 15:52 Cloudy with Thunderstorms 54 12.2 54 12.2 100 100 SSE 9 15 29.91 1013 2 2 0.02 0.51
4:16 pm 16:16 Cloudy with Thunderstorms 54 12 54 12 100 100 S 8 13 29.91 1013 2 2 0.00 0.00
4:32 pm 16:32 Cloudy with Thunderstorms 57 14 55 13 94 94 SSW 6 9 29.91 1013 2 2 0.00 0.00
4:43 pm 16:43 Cloudy with Nearby Thunderstorms 57 13.9 56 13.3 96 96 SW 5 7 29.91 1013 2 3 0.23 5.84
4:50 pm 16:50 Cloudy with Light Rain 57 14 55 13 94 94 S 6 9 29.91 1013 2 3 0.00 0.00
4:52 pm 16:52 Cloudy with Light Rain 57 13.9 56 13.3 96 96 S 7 11 29.89 1012 2 3 0.24 6.10
5:00 pm 17:00 Cloudy with Light Rain 57 14 55 13 94 94 S 6 9 29.91 1013 2 3 0.00 0.00
5:39 pm 17:39 Cloudy with Mist and Fog 57 13.9 57 13.9 100 100 S 6 9 29.88 1012 5 8 0.02 0.51
5:52 pm 17:52 Cloudy with Mist and Fog 58 14.4 57 13.9 97 97 SSW 7 11 29.88 1012 6 10 0.02 0.51
6:10 pm 18:10 Cloudy 59 15 57 14 94 94 S 8 13 29.88 1012 8 13 0.00 0.00
6:38 pm 18:38 Cloudy 60 15.6 59 15 96 96 S 13 20 29.85 1011 10 16 0.00 0.00
6:52 pm 18:52 Cloudy 61 16.1 59 15 93 93 S 13 20 29.85 1011 10 16 0.00 0.00
7:52 pm 19:52 Cloudy 62 16.7 60 15.6 93 93 SSW 13 20 29.84 1011 10 16 0.00 0.00
8:52 pm 20:52 Cloudy 62 16.7 60 15.6 93 93 S 13 20 29.82 1010 10 16 0.00 0.00
9:37 pm 21:37 Cloudy 63 17.2 60 15.6 90 90 SSW 16 26 29.80 1009 10 16 0.00 0.00
9:52 pm 21:52 Cloudy 63 17.2 60 15.6 90 90 SSW 15 24 29.82 1010 10 16 0.00 0.00
10:11 pm 22:11 Cloudy 63 17.2 60 15.6 90 90 SSW 14 22 29.80 1009 10 16 0.00 0.00
10:52 pm 22:52 Cloudy 63 17.2 60 15.6 90 90 SSW 13 20 29.80 1009 10 16 0.00 0.00
11:52 pm 23:52 Cloudy 64 17.8 60 15.6 87 87 SSW 16 26 29.77 1008 10 16 0.00 0.00

Powered by AerisWeather